Location: Colle Santa Colomba
(42.0333°N, 12.5667°E)
Time: 03:56:35
(UTC+00:00)

Cosmos 2219 Rocket - Pass Details

Date: 25 October 2021
Orbit: 826 x 848 km, 71.0° (Epoch: 05 December)

Event Time Altitude Azimuth Distance (km) Brightness Sun altitude
Rises 19:37:21 0° 234° (SW) 3,356 5.7 -38.2°
Reaches altitude 10° 19:40:05 10° 246° (WSW) 2,428 5.0 -38.7°
Enters shadow 19:43:08 24° 275° (W) 1,644 4.1 -39.2°
